User: anonymous   Login
Location: Chiroubles
(46.1812°N, 4.6660°E)
Time: 04:36:52
(UTC+00:00)
Language:

SL-16 R/B - Orbit

View from above orbital plane
View from above orbital plane
View from above satellite
View from above satellite

Ground track
Ground track

The orbit data is extracted from the following two-line orbital elements,

1 31793U 07029B   20304.21152338 -.00000292 +00000-0 -12762-3 0  9991
2 31793 070.9752 323.2843 0002216 273.6658 153.8201 14.14435234688786
Epoch (UTC): 30 October 2020 05:04:35
Eccentricity: 0.0002216
inclination: 70.9752°
perigee height: 842 km
apogee height: 846 km
right ascension of ascending node: 323.2843°
argument of perigee: 273.6658°
revolutions per day: 14.14435234
mean anomaly at epoch: 153.8201°
orbit number at epoch: 68878

The dashed part of the orbit path shows where the satellite is in the earth's shadow,  

DLR